Terminal Aerodrome Forecast
Issued by NWS

Home | Current Version | Previous Version | Text Only | Print | Product List | Glossary On
Versions: 1 2 3 4 5 6 7 8 9 10 11 12
000
FTUS45 KRIW 171100
TAFRKS
TAF
KRKS 171121Z 1712/1812 21006KT P6SM FEW120
     FM172000 26010G20KT P6SM SCT110
     FM180100 25009KT P6SM SCT110
     FM180500 20006KT P6SM FEW120=

USA.gov is the U.S. government's official web portal to all federal, state and local government web resources and services.